Temp_Advection
nan nan nan nan nan nan nan nan nan nan nan nan nan nan nan nan nan nan nan nan nan nan
nan 0 1 0 -1 -0 1 0 1 1 1 1 1 1 1 1 1 1 0 0 0 nan
nan 2 1 -1 -1 -0 -1 0 1 1 1 1 1 1 1 1 1 1 0 0 0 nan
nan 1 -0 -1 -0 0 0 1 0 1 1 1 1 1 1 1 1 1 0 0 0 nan
nan 1 0 1 -0 -0 0 1 1 1 1 1 1 1 1 1 1 1 0 0 0 nan
nan -0 0 0 -0 1 1 2 1 1 1 0 1 1 1 1 1 0 0 1 0 nan
nan -0 1 1 1 1 1 1 1 1 1 2 2 1 1 1 1 1 1 1 0 nan
nan 0 1 1 1 1 2 1 1 2 2 3 2 2 2 1 0 1 1 0 0 nan
nan 1 1 1 2 2 2 3 3 3 2 2 2 2 1 -0 1 0 0 0 0 nan
nan 1 1 2 2 2 2 3 2 2 2 1 2 1 0 1 0 0 0 0 0 nan
nan 1 1 2 2 2 2 1 1 1 1 1 0 -0 0 0 0 0 0 0 0 nan
nan 2 3 2 2 2 1 1 1 1 1 1 0 -0 -0 -0 0 0 0 0 0 nan
nan 3 3 3 2 2 1 1 1 1 1 0 0 0 0 0 0 0 0 0 0 nan
nan nan nan nan nan nan nan nan nan nan nan nan nan nan nan nan nan nan nan nan nan nan
Wind_Speed
33 35 39 38 39 42 43 41 38 36 34 32 29 27 25 24 22 21 19 18 16 13
36 40 41 39 39 41 39 38 37 37 36 33 32 30 28 26 24 22 20 17 14 12
43 38 39 40 40 40 40 38 36 36 35 34 33 31 30 28 25 22 19 16 13 10
41 41 39 41 41 40 37 35 37 36 35 34 34 32 31 28 25 21 17 13 10 9
46 41 42 40 42 40 38 37 39 37 37 36 34 33 31 29 25 19 15 11 10 8
41 45 44 41 42 42 40 41 41 39 37 36 35 32 28 23 21 17 15 16 13 9
39 42 46 44 45 44 41 40 39 39 38 38 38 33 24 21 20 19 16 13 11 7
35 39 43 45 44 44 46 42 43 43 43 41 35 29 26 20 19 17 15 12 8 6
36 42 44 45 46 46 47 47 48 48 45 38 32 30 21 22 21 17 13 10 7 6
36 43 45 45 45 50 52 50 51 46 41 39 35 33 30 25 17 14 12 9 9 9
42 48 46 46 46 49 51 51 47 47 44 41 37 32 22 20 18 15 12 10 9 10
44 52 50 49 49 50 50 52 49 42 36 33 29 25 23 19 15 12 12 10 10 11
38 44 48 49 49 52 53 47 41 37 32 29 25 22 20 15 13 13 11 11 11 10
34 39 41 45 51 50 45 41 37 35 29 25 24 21 17 15 13 11 11 11 10 10
Wind_Direction
221 207 212 216 206 208 209 206 202 201 202 203 201 199 198 198 198 198 197 196 197 199
219 215 223 215 213 214 211 206 203 204 202 200 199 197 195 193 190 188 188 190 193 193
230 225 221 219 214 217 217 216 208 203 202 199 196 193 191 187 184 184 183 184 183 184
229 229 224 222 221 220 218 217 211 209 204 200 194 189 186 182 179 175 176 177 189 193
231 227 228 226 220 218 219 219 211 204 199 192 190 185 183 179 176 180 190 195 197 205
231 229 226 229 223 221 218 213 207 204 197 192 187 181 178 182 186 184 191 203 196 188
234 234 230 232 227 219 214 208 204 201 198 192 185 181 186 181 173 184 184 184 187 179
240 239 233 229 222 219 213 210 201 196 187 184 184 187 184 176 184 178 174 187 194 206
239 233 227 228 226 215 206 198 192 184 184 186 189 176 168 184 173 173 184 193 210 237
235 222 222 218 216 210 197 187 183 185 191 176 165 166 174 183 173 179 189 204 228 251
229 214 212 211 207 200 188 185 186 177 172 169 171 177 160 169 174 186 200 221 244 262
203 205 201 198 196 191 182 176 174 171 168 169 165 159 169 174 182 197 219 237 258 270
194 190 188 191 184 176 174 167 163 163 164 159 155 167 174 177 194 218 238 255 264 265
189 185 179 172 168 163 160 160 159 158 151 159 169 170 177 194 212 233 252 261 268 269
Height
1430 1433 1440 1445 1451 1455 1461 1462 1464 1470 1477 1482 1488 1493 1498 1503 1507 1510 1513 1516 1519 1521
1427 1430 1437 1445 1450 1454 1460 1460 1463 1468 1473 1478 1483 1488 1492 1498 1502 1506 1510 1513 1516 1518
1422 1426 1434 1440 1445 1450 1454 1456 1463 1466 1471 1477 1480 1484 1489 1494 1498 1503 1508 1511 1514 1516
1418 1423 1429 1434 1438 1446 1448 1455 1460 1465 1471 1477 1480 1483 1487 1491 1496 1500 1505 1509 1511 1514
1414 1418 1422 1427 1433 1439 1444 1449 1457 1462 1469 1473 1479 1482 1485 1488 1493 1498 1502 1505 1508 1510
1409 1411 1415 1420 1425 1432 1438 1445 1454 1458 1466 1472 1477 1483 1486 1488 1491 1495 1498 1503 1507 1509
1403 1406 1409 1413 1419 1426 1433 1441 1448 1455 1461 1468 1473 1476 1484 1488 1489 1492 1497 1504 1507 1504
1398 1402 1404 1408 1412 1420 1428 1432 1440 1451 1455 1463 1469 1471 1480 1486 1488 1492 1494 1503 1504 1502
1392 1395 1398 1402 1407 1413 1419 1426 1434 1444 1450 1457 1462 1469 1479 1486 1488 1490 1495 1499 1501 1502
1386 1387 1391 1396 1402 1406 1412 1421 1429 1440 1446 1451 1457 1467 1475 1481 1484 1489 1494 1495 1497 1499
1379 1380 1384 1389 1396 1402 1409 1417 1428 1435 1441 1449 1458 1465 1472 1478 1482 1486 1489 1492 1494 1495
1372 1371 1377 1384 1390 1399 1407 1417 1426 1434 1442 1450 1458 1464 1471 1477 1481 1485 1487 1489 1490 1491
1372 1372 1375 1381 1387 1396 1407 1416 1427 1436 1445 1452 1459 1466 1471 1475 1479 1483 1485 1486 1486 1486
1374 1377 1381 1386 1392 1400 1409 1420 1428 1437 1444 1452 1458 1464 1468 1473 1477 1479 1481 1481 1481 1481